Location: *
(51.4660°N, 0.3360°W)
Time: 19:11:45
(UTC+00:00)

Cosmos 1842 - Pass Details

Date: 19 September 2019
Orbit: 522 x 538 km, 82.5° (Epoch: 20 October)

Event Time Altitude Azimuth Distance (km) Brightness Sun altitude
Rises 18:54:13 0° 345° (NNW) 2,708 7.3 -8.1°
Reaches altitude 10° 18:56:25 10° 340° (NNW) 1,811 6.4 -8.4°
Maximum altitude 19:00:17 50° 265° (W) 689 4.3 -9.0°
Drops below altitude 10° 19:04:06 10° 190° (S) 1,790 5.9 -9.6°
Sets 19:06:16 0° 185° (S) 2,674 6.7 -9.9°
